Location: Newark
(39.5667°N, 8.9833°E)
Time: 22:54:21
(UTC+00:00)

LightSail 2 - Pass Details

Date: 26 September 2019
Orbit: 707 x 722 km, 24.0° (Epoch: 17 October)

Event Time Altitude Azimuth Distance (km) Brightness Sun altitude
Exits shadow 03:32:08 13° 187° (S) 1,955 7.2 -20.4°
Maximum altitude 03:32:47 13° 178° (S) 1,938 7.2 -20.3°
Drops below altitude 10° 03:35:12 10° 150° (SSE) 2,162 7.8 -19.8°
Sets 03:38:52 0° 124° (SE) 3,080 9.0 -19.2°
